TimeCST,TemperatureF,Dew PointF,Humidity,Sea Level PressureIn,VisibilityMPH,Wind Direction,Wind SpeedMPH,Gust SpeedMPH,PrecipitationIn,Events,Conditions,WindDirDegrees,DateUTC
12:53 AM,45.0,30.0,56,29.72,10.0,SSW,26.5,36.8,N/A,,Clear,200,2012-12-01 06:53:00
1:53 AM,45.0,28.9,53,29.70,10.0,SSW,23.0,32.2,N/A,,Clear,200,2012-12-01 07:53:00
2:53 AM,45.0,28.9,53,29.69,10.0,SSW,20.7,31.1,N/A,,Clear,210,2012-12-01 08:53:00
3:53 AM,45.0,28.0,52,29.69,10.0,SSW,16.1,21.9,N/A,,Clear,210,2012-12-01 09:53:00
5:53 AM,48.0,28.9,48,29.71,10.0,WSW,12.7,-,N/A,,Clear,240,2012-12-01 11:53:00
6:53 AM,48.0,30.0,50,29.73,10.0,SSW,6.9,-,N/A,,Clear,210,2012-12-01 12:53:00
7:53 AM,48.9,30.9,50,29.75,10.0,WSW,6.9,-,N/A,,Scattered Clouds,250,2012-12-01 13:53:00
8:53 AM,46.9,30.9,54,29.77,10.0,WNW,6.9,-,N/A,,Clear,290,2012-12-01 14:53:00
9:53 AM,53.1,32.0,45,29.77,10.0,West,5.8,-,N/A,,Clear,280,2012-12-01 15:53:00
11:53 AM,61.0,32.0,34,29.75,10.0,NW,8.1,-,N/A,,Clear,320,2012-12-01 17:53:00
12:53 PM,63.0,33.1,33,29.75,10.0,NW,4.6,-,N/A,,Clear,310,2012-12-01 18:53:00
1:53 PM,63.0,34.0,34,29.75,10.0,North,4.6,-,N/A,,Clear,350,2012-12-01 19:53:00
2:53 PM,62.1,35.1,37,29.75,10.0,NNE,4.6,-,N/A,,Clear,20,2012-12-01 20:53:00
3:53 PM,61.0,36.0,39,29.77,10.0,NNE,5.8,-,N/A,,Clear,20,2012-12-01 21:53:00
4:53 PM,54.0,35.1,49,29.81,10.0,NNE,6.9,-,N/A,,Clear,30,2012-12-01 22:53:00
5:53 PM,51.1,35.1,54,29.81,10.0,East,4.6,-,N/A,,Clear,100,2012-12-01 23:53:00
6:53 PM,50.0,35.1,57,29.84,10.0,SSE,3.5,-,N/A,,Clear,160,2012-12-02 00:53:00
7:53 PM,46.0,34.0,63,29.86,10.0,South,5.8,-,N/A,,Clear,180,2012-12-02 01:53:00
8:53 PM,45.0,33.1,63,29.87,10.0,South,5.8,-,N/A,,Clear,170,2012-12-02 02:53:00
9:53 PM,45.0,33.1,63,29.87,10.0,SSW,5.8,-,N/A,,Clear,210,2012-12-02 03:53:00
10:53 PM,42.1,32.0,67,29.87,10.0,South,8.1,-,N/A,,Clear,190,2012-12-02 04:53:00
11:53 PM,46.0,34.0,63,29.87,10.0,SSW,6.9,-,N/A,,Clear,200,2012-12-02 05:53:00